Starlink 11522

operational
NORAD ID: 63141 Int'l Des: 2025-043 Owner: SPXS Country: US Constellation: starlink
LEOCIRCULAR

Über Starlink 11522

Beschreibung wird geladen...

Live-Position

3D-Globus wird geladen...

Nächste Überflüge

Höhenverlauf

Altitude vs Time

uPlot chart will show altitude changes over time

Zweizeiliger Elementsatz

1 63141U 25043K 25258.19628995 .00425539 00000-0 31211-2 0 9998
2 63141 42.9989 228.3450 0001836 233.0628 127.0072 15.71082930 31698
Epoch: 15. Sept. 2025 • Age: 21 hours

Aktueller Status

Höhe 357.6 km
Geschwindigkeit 7.70 km/s
Subsatellitenpunkt -18.35°S, 177.75°E
Startdatum 3. März 2025
Alter 0.5 years
Typ internet

Technische Details

Klassifizierung Payload
Masse 960.00 kg
Trockenmasse 910.00 kg
Gesamtmasse 960.00 kg
Länge 0.30 m
Durchmesser 4.10 m
Spannweite 29.00 m
Form Box + pan
Hersteller SPXS
Bus-Typ Starlink V2MD
Phasenstatus In Orbit
Besitzer/Staat SPXS/US

Große Konstellationen

Loading constellations...